Simultaneous Nadir Overpasses (SNOs) Predictions

Prediction of SNOs between GOES-15 and LANDSAT-8 Satellite Orbit:

Table of predicted SNOs for the next 14.0 days since TLE Epoch: 1/10/2025
Index Date Time (GOES-15) GOES-15 Lat,Lon LANDSAT-8 Lat,Lon Distance(km) Time Diff (sec)
1 01/11/2025 18:08:29 0.02, 61.43 -0.01, 61.30 15.13 80
2 01/13/2025 17:53:38 0.03, 61.45 0.64, 64.25 318.73 80
3 01/14/2025 06:14:53 -0.02, 61.46 0.49, 59.10 268.69 80
4 01/16/2025 06:05:21 -0.02, 61.48 -0.12, 62.06 65.88 80
5 01/18/2025 05:53:09 -0.02, 61.50 -0.76, 65.02 400.71 80
6 01/18/2025 18:14:32 0.01, 61.48 -0.34, 59.83 188.10 80
7 01/20/2025 17:59:40 0.01, 61.51 0.27, 62.80 146.21 80
8 01/21/2025 06:20:54 -0.01, 61.54 0.85, 57.64 443.57 80
9 01/22/2025 17:47:27 0.02, 61.53 0.89, 65.76 480.07 80
10 01/23/2025 06:08:41 -0.02, 61.56 0.22, 60.61 109.62 80
